{"data":{"norad_id":59333,"intl_designator":"2024-057P","name":"STARLINK-31572","alt_names":[],"object_type":"PAYLOAD","status":"ACTIVE","operator":null,"country":"US","launch_date":"2024-03-25","launch_site_code":"AFETR","launch_vehicle":null,"mission":null,"orbit_class":"UNKNOWN","rcs_meters":null,"size_class":null,"mass_kg":null,"dimensions":null,"purposes":["comms"],"wikipedia_slug":null,"has_3d_model":false,"image_url":null,"decayed_at":null,"tle_current":{"epoch":"2026-05-25T05:28:31.816992Z","epoch_age_seconds":52512,"freshness":"FRESH","line1":"1 59333U 24057P   26145.22814603  .00001548  00000+0  65772-4 0  9993","line2":"2 59333  42.9999 126.1530 0001658 271.3963  88.6699 15.27580909121417","mean_motion":15.27580909,"eccentricity":0.0001658,"inclination_deg":42.9999,"raan_deg":126.153,"arg_perigee_deg":271.3963,"mean_anomaly_deg":88.6699,"bstar":6.5772e-5,"rev_number":12141,"period_min":94.266692619422,"perigee_km":481.90878996456,"apogee_km":484.18395837143,"semimajor_km":6861.183374168,"source":"CELESTRAK","updated_at":"2026-05-25T13:38:18.905397Z"}}}